Location: Unspecified
(0.0000°N, 0.0000°E)
Time: 05:37:09
(UTC+00:00)

ISS - Pass Details

Date: 17 May 2019
Orbit: 407 x 410 km, 51.6° (Epoch: 23 May)

Event Time Altitude Azimuth Distance (km) Brightness Sun altitude
Rises 18:18:00 0° 213° (SSW) 2,324 0.2 -5.1°
Reaches altitude 10° 18:20:05 10° 210° (SSW) 1,462 -0.9 -5.6°
Maximum altitude 18:23:22 73° 125° (SE) 426 -3.9 -6.4°
Drops below altitude 10° 18:26:37 10° 40° (NE) 1,455 -1.2 -7.1°
Sets 18:28:41 0° 38° (NE) 2,312 -0.2 -7.6°
